Northeast Philadelphia, PA

8:48 PM EST on February 21, 2018 (GMT -0500)
Northeast Philadelphia

Weather History for KPNE - September, 2012

Change the Weather History Date:

Tuesday, September 4, 2012

  Actual Average Record
Temperature  
Mean Temperature 76 °F -  
Max Temperature 80 °F 79 °F 95 °F (2008)
Min Temperature 71 °F 61 °F 48 °F (1997)
Cooling Degree Days 10    
Growing Degree Days 26 (Base 50)    
Moisture  
Dew Point 73 °F    
Average Humidity 95    
Maximum Humidity 100    
Minimum Humidity 83    
Precipitation  
Precipitation 3.80 in - - ()
Sea Level Pressure  
Sea Level Pressure 29.98 in    
Wind  
Wind Speed 5 mph (SE)    
Max Wind Speed 9 mph    
Max Gust Speed 16 mph    
Visibility 6 miles    
Events Rain    
Averages and records for this station are not official NWS values.
T = Trace of Precipitation, MM = Missing Value Source: NWS Daily Summary

Daily Weather History Graph

Daily Weather History Graph

Search for Another Location

Airport or City:

Trip Planner

Search our weather history database for the weather conditions in past years. The results will help you decide how hot, cold, wet, or windy it might be!

Date:

Astronomy

Sep. 04, 2012 Rise Set
Actual Time 6:31 AM EDT 7:26 PM EDT
Civil Twilight 6:03 AM EDT 7:53 PM EDT
Nautical Twilight 5:30 AM EDT 8:26 PM EDT
Astronomical Twilight 4:56 AM EDT 9:00 PM EDT
Moon 9:17 PM EDT (9/4) 10:35 AM EDT (9/4)
Length of Visible Light 13h 50m
Length of Day
12h 55m
Waning Gibbous, 84% of the Moon is Illuminated
Sep 4
Waning Gibbous
Sep 8
Last Quarter
Sep 15
New
Sep 22
First Quarter
Sep 29
Full

Hourly Weather History & Observations

Time (EDT) Temp. Heat Index Dew Point Humidity Pressure Visibility Wind Dir Wind Speed Gust Speed Precip Events Conditions
12:42 AM 71.6 °F - 69.8 °F 94% 30.08 in 10.0 mi NNE 3.5 mph - N/A   Overcast
12:54 AM 72.0 °F - 70.0 °F 93% 30.08 in 10.0 mi ENE 3.5 mph - N/A   Overcast
1:54 AM 72.0 °F - 70.0 °F 93% 30.05 in 10.0 mi NE 6.9 mph - N/A   Overcast
2:54 AM 72.0 °F - 71.1 °F 97% 30.04 in 10.0 mi ENE 4.6 mph - N/A   Overcast
3:54 AM 72.0 °F - 71.1 °F 97% 30.04 in 3.0 mi ESE 9.2 mph - 0.02 in Rain Heavy Rain
3:58 AM 71.6 °F - 71.6 °F 100% 30.04 in 1.8 mi SE 9.2 mph - 0.11 in Rain Heavy Rain
4:09 AM 71.6 °F - 71.6 °F 100% 30.04 in 1.2 mi Variable 3.5 mph - 0.31 in Rain Heavy Rain
4:32 AM 71.6 °F - 71.6 °F 100% 30.04 in 2.5 mi SE 4.6 mph - 0.89 in Rain Heavy Rain
4:40 AM 71.6 °F - 71.6 °F 100% 30.04 in 4.0 mi SE 5.8 mph - 0.92 in Rain Rain
4:54 AM 72.0 °F - 72.0 °F 100% 30.04 in 2.0 mi East 5.8 mph - 1.10 in Rain Heavy Rain
5:09 AM 71.6 °F - 71.6 °F 100% 30.03 in 4.0 mi East 8.1 mph - 0.13 in Rain Rain
5:22 AM 71.6 °F - 71.6 °F 100% 30.03 in 7.0 mi Calm Calm - 0.16 in Rain Rain
5:54 AM 72.0 °F - 71.1 °F 97% 30.03 in 10.0 mi SE 4.6 mph - 0.20 in   Mostly Cloudy
6:36 AM 71.6 °F - 71.6 °F 100% 30.04 in 10.0 mi East 3.5 mph - N/A   Overcast
6:44 AM 71.6 °F - 71.6 °F 100% 30.04 in 10.0 mi East 3.5 mph - N/A   Overcast
6:54 AM 72.0 °F - 71.1 °F 97% 30.03 in 10.0 mi ESE 3.5 mph - N/A   Overcast
7:40 AM 71.6 °F - 71.6 °F 100% 30.04 in 10.0 mi ESE 4.6 mph - N/A   Overcast
7:54 AM 72.0 °F - 71.1 °F 97% 30.03 in 10.0 mi SE 3.5 mph - N/A   Overcast
8:24 AM 73.4 °F - 71.6 °F 94% 30.02 in 10.0 mi SSE 4.6 mph - N/A   Mostly Cloudy
8:54 AM 73.9 °F - 73.0 °F 97% 30.02 in 10.0 mi SE 3.5 mph - N/A   Overcast
9:10 AM 75.2 °F - 73.4 °F 94% 30.02 in 10.0 mi Calm Calm - N/A   Overcast
9:34 AM 75.2 °F - 73.4 °F 94% 30.03 in 10.0 mi Calm Calm - N/A   Overcast
9:54 AM 75.9 °F - 73.9 °F 94% 30.02 in 10.0 mi ESE 3.5 mph - N/A   Overcast
10:39 AM 77.0 °F - 73.4 °F 89% 30.03 in 10.0 mi SE 4.6 mph - N/A   Overcast
10:41 AM 77.0 °F - 73.4 °F 89% 30.02 in 10.0 mi SE 4.6 mph - N/A   Overcast
10:54 AM 77.0 °F - 73.9 °F 90% 30.02 in 10.0 mi ESE 5.8 mph - N/A   Overcast
11:01 AM 77.0 °F - 73.4 °F 89% 30.02 in 10.0 mi SE 6.9 mph - N/A   Overcast
11:07 AM 75.2 °F - 73.4 °F 94% 30.02 in 2.0 mi Calm Calm - 0.00 in Rain Rain
11:11 AM 75.2 °F - 75.2 °F 100% 30.02 in 0.8 mi South 3.5 mph - 0.04 in Rain Heavy Rain
11:38 AM 73.4 °F - 71.6 °F 94% 30.01 in 1.0 mi WSW 5.8 mph - 1.38 in Rain Heavy Rain
11:44 AM 73.4 °F - 73.4 °F 100% 30.01 in 3.0 mi Calm Calm - 1.39 in Rain Light Rain
11:54 AM 75.2 °F - 73.4 °F 94% 30.01 in 5.0 mi NE 5.8 mph - N/A Rain Light Rain
12:23 PM 78.8 °F - 73.4 °F 83% 29.99 in 10.0 mi Calm Calm - 0.00 in   Mostly Cloudy
12:38 PM 80.6 °F 86.2 °F 75.2 °F 84% 29.98 in 10.0 mi East 4.6 mph - 0.00 in   Partly Cloudy
12:54 PM 79.0 °F - 75.0 °F 88% 29.98 in 10.0 mi ESE 6.9 mph - 0.00 in   Clear
1:19 PM 78.8 °F - 75.2 °F 89% 29.98 in 1.8 mi ESE 3.5 mph - 0.02 in Rain Heavy Rain
1:23 PM 77.0 °F - 75.2 °F 94% 29.98 in 0.8 mi SE 8.1 mph - 0.15 in Rain Heavy Rain
1:52 PM 73.4 °F - 73.4 °F 100% 29.98 in 1.0 mi SE 8.1 mph - 1.81 in Rain Heavy Rain
1:54 PM 73.9 °F - 73.0 °F 97% 29.98 in 1.2 mi SE 4.6 mph - 1.84 in Rain Heavy Rain
2:12 PM 73.4 °F - 73.4 °F 100% 29.97 in 2.5 mi Calm Calm - 0.16 in Rain Rain
2:14 PM 73.4 °F - 73.4 °F 100% 29.97 in 3.0 mi SE 3.5 mph - 0.16 in Rain Rain
2:31 PM 73.4 °F - 73.4 °F 100% 29.96 in 2.5 mi SE 4.6 mph - 0.20 in Rain Heavy Rain
2:45 PM 73.4 °F - 73.4 °F 100% 29.96 in 5.0 mi ESE 8.1 mph - 0.24 in Rain Rain
2:54 PM 75.0 °F - 73.9 °F 96% 29.95 in 6.0 mi SE 9.2 mph - 0.25 in Rain Light Rain
3:11 PM 73.4 °F - 73.4 °F 100% 29.94 in 7.0 mi ESE 9.2 mph - 0.01 in Rain Light Rain
3:34 PM 75.2 °F - 73.4 °F 94% 29.94 in 10.0 mi ESE 9.2 mph - 0.02 in   Mostly Cloudy
3:54 PM 75.9 °F - 73.9 °F 94% 29.93 in 10.0 mi SE 8.1 mph - 0.02 in   Scattered Clouds
4:54 PM 75.9 °F - 73.0 °F 91% 29.92 in 10.0 mi SE 9.2 mph - N/A   Partly Cloudy
5:54 PM 75.9 °F - 73.9 °F 94% 29.92 in 5.0 mi Variable 3.5 mph - 0.01 in Rain Rain
6:07 PM 75.2 °F - 73.4 °F 94% 29.91 in 2.5 mi Calm Calm - 0.05 in Rain Light Rain
6:13 PM 75.2 °F - 75.2 °F 100% 29.91 in 5.0 mi Calm Calm - 0.06 in Rain Light Rain
6:25 PM 75.2 °F - 75.2 °F 100% 29.93 in 2.5 mi SW 8.1 mph 16.1 mph 0.07 in Rain Light Rain
6:28 PM 75.2 °F - 75.2 °F 100% 29.91 in 0.8 mi SE 4.6 mph 16.1 mph 0.11 in Rain Heavy Rain
6:36 PM 75.2 °F - 73.4 °F 94% 29.91 in 1.0 mi Calm Calm - 0.36 in Rain Rain
6:39 PM 75.2 °F - 73.4 °F 94% 29.91 in 3.0 mi SSE 3.5 mph - 0.36 in Rain Light Rain
6:54 PM 75.9 °F - 75.0 °F 97% 29.90 in 10.0 mi SE 4.6 mph - 0.36 in   Mostly Cloudy
7:06 PM 77.0 °F - 75.2 °F 94% 29.89 in 10.0 mi SE 4.6 mph - N/A   Scattered Clouds
7:54 PM 75.9 °F - 73.9 °F 94% 29.88 in 10.0 mi SSE 3.5 mph - N/A   Clear
8:54 PM 77.0 °F - 75.9 °F 96% 29.89 in 6.0 mi South 3.5 mph - N/A   Clear
9:54 PM 77.0 °F - 75.0 °F 94% 29.88 in 8.0 mi SSW 3.5 mph - N/A   Partly Cloudy
10:54 PM 77.0 °F - 73.9 °F 90% 29.87 in 10.0 mi Variable 3.5 mph - N/A   Partly Cloudy
11:54 PM 77.0 °F - 73.0 °F 88% 29.86 in 10.0 mi Variable 6.9 mph - N/A   Mostly Cloudy